Location: Kuppenheim
(48.8299°N, 8.2568°E)
Time: 11:10:19
(UTC+00:00)

FALCON 9 DEB - Pass Details

Date: 20 June 2021
Orbit: 422 x 432 km, 53.0° (Epoch: 27 July)

Event Time Altitude Azimuth Distance (km) Brightness Sun altitude
Rises 01:30:15 0° 293° (WNW) 2,392 6.8 -12.8°
Reaches altitude 10° 01:32:25 10° 287° (WNW) 1,521 5.8 -12.6°
Maximum altitude 01:35:41 43° 215° (SW) 605 3.4 -12.4°
Drops below altitude 10° 01:38:55 10° 142° (SE) 1,507 5.6 -12.1°
Sets 01:41:03 0° 135° (SE) 2,367 6.7 -11.9°
